This demonstration page uses our WeatherBlox Daily Observations layout. Learn more.

Left ArrowRight Arrow

44.89941, -97.11507

Hourly Observations for July 4, 2016

Temp ( °F °C ) Dew Point ( °F °C ) Humidity (%) Winds ( mph kmh ) Pressure ( in mb ) Visibility ( mi km ) Precip ( " mm )
12:53 am 00:53 Clear 64 17.8 55 12.8 73 73 SSE 10 17 29.84 1011 10 16 0.00 0.00
1:53 am 01:53 Clear 63 17.2 55 12.8 76 76 SSE 9 15 29.82 1010 10 16 0.00 0.00
2:53 am 02:53 Clear 63 17.2 57 13.9 81 81 S 9 15 29.80 1009 10 16 0.00 0.00
3:53 am 03:53 Clear 63 17.2 59 15 87 87 S 12 19 29.80 1009 10 16 0.00 0.00
4:53 am 04:53 Partly Cloudy 63 17.2 59 15 87 87 SSW 17 28 29.80 1009 10 16 0.00 0.00
5:12 am 05:12 Mostly Cloudy 64 17.8 60 15.6 87 87 SSW 15 24 29.80 1009 10 16 0.00 0.00
5:48 am 05:48 Cloudy 64 18 61 16 88 88 S 14 22 29.77 1008 10 16 0.00 0.00
5:53 am 05:53 Cloudy 65 18.3 60 15.6 84 84 S 14 22 29.78 1008 10 16 0.00 0.00
6:53 am 06:53 Cloudy 66 18.9 60 15.6 81 81 S 12 19 29.75 1007 10 16 0.00 0.00
7:53 am 07:53 Cloudy 66 18.9 61 16.1 84 84 SSW 16 26 29.76 1008 10 16 0.00 0.00
8:53 am 08:53 Cloudy 67 19.4 61 16.1 81 81 S 15 24 29.75 1007 10 16 0.00 0.00
9:41 am 09:41 Cloudy 68 20 62 16.7 81 81 SSW 17 28 29.71 1006 10 16 0.00 0.00
9:53 am 09:53 Cloudy 68 20 62 16.7 81 81 S 13 20 29.76 1008 10 16 0.00 0.00
10:53 am 10:53 Cloudy 70 21.1 62 16.7 76 76 SSW 16 26 29.75 1008 10 16 0.00 0.00
11:39 am 11:39 Cloudy 74 23.3 63 17.2 69 69 SSW 15 24 29.74 1007 10 16 0.00 0.00
11:53 am 11:53 Cloudy 76 24.4 64 17.8 67 67 SSW 15 24 29.75 1008 10 16 0.00 0.00
12:13 pm 12:13 Partly Cloudy 77 25 64 17.8 64 64 SSW 15 24 29.68 1005 10 16 0.00 0.00
12:53 pm 12:53 Sunny 79 26.1 65 18.3 62 62 SSW 9 15 29.75 1007 10 16 0.00 0.00
1:53 pm 13:53 Sunny 84 28.9 65 18.3 53 53 SSW 15 24 29.73 1007 10 16 0.00 0.00
2:53 pm 14:53 Sunny 87 30.6 66 18.9 50 50 S 10 17 29.72 1006 10 16 0.00 0.00
3:53 pm 15:53 Sunny 89 31.7 65 18.3 45 45 SSW 13 20 29.71 1006 10 16 0.00 0.00
4:53 pm 16:53 Sunny 90 32.2 63 17.2 41 41 SSW 12 19 29.70 1006 10 16 0.00 0.00
5:53 pm 17:53 Sunny 91 32.8 62 16.7 38 38 SSW 10 17 29.68 1005 10 16 0.00 0.00
6:53 pm 18:53 Sunny 91 32.8 60 15.6 35 35 SSW 9 15 29.67 1005 10 16 0.00 0.00
7:53 pm 19:53 Sunny 88 31.1 66 18.9 48 48 S 9 15 29.66 1005 10 16 0.00 0.00
8:53 pm 20:53 Sunny 83 28.3 69 20.6 63 63 S 13 20 29.69 1005 10 16 0.00 0.00
9:53 pm 21:53 Clear 79 26.1 69 20.6 72 72 S 13 20 29.68 1005 10 16 0.00 0.00
10:53 pm 22:53 Clear 76 24.4 68 20 77 77 S 10 17 29.70 1006 10 16 0.00 0.00
11:53 pm 23:53 Clear 74 23.3 68 20 82 82 S 9 15 29.68 1005 10 16 0.00 0.00

Powered by AerisWeather